Location: Terra Rouge Observatory
(46.0000°N, 62.7500°W)
Time: 13:01:23
(UTC-03:00)

NOSS 3-1 (A) - Visible Passes

Search period start: 28 March 2015 00:00
Search period end: 07 April 2015 00:00
Orbit: 886 x 1327 km, 63.4° (Epoch: 22 March)

Date Brightness Start Highest point End Pass type
(mag) Time Alt. Az. Time Alt. Az. Time Alt. Az.
28 Mar 6.2 20:44:59 10° WNW 20:50:46 23° WSW 20:56:31 10° SSW visible
29 Mar 5.7 19:59:36 10° NW 20:06:19 34° WSW 20:13:20 10° S visible
31 Mar 6.5 20:22:34 10° WNW 20:27:23 17° WSW 20:31:56 10° SW visible
